Time,TemperatureF,DewpointF,PressureIn,WindDirection,WindDirectionDegrees,WindSpeedMPH,WindSpeedGustMPH,Humidity,HourlyPrecipIn,Conditions,Clouds,dailyrainin,SoftwareType,DateUTC
2013-01-12 00:04:00,39.3,38.3,29.51,WNW,286,2.0,7.0,96,0.01,,,0.00,VWS V12.07,2013-01-12 06:04:00,
2013-01-12 00:09:00,39.2,37.9,29.51,ESE,118,1.0,7.0,95,0.01,,,0.00,VWS V12.07,2013-01-12 06:09:00,
2013-01-12 00:19:00,39.7,38.4,29.51,SSW,212,4.0,7.0,95,0.01,,,0.00,VWS V12.07,2013-01-12 06:19:00,
2013-01-12 00:24:00,40.0,39.0,29.51,SSW,211,4.0,10.0,96,0.01,,,0.00,VWS V12.07,2013-01-12 06:24:00,
2013-01-12 00:34:00,40.5,39.2,29.51,NNE,29,2.0,5.0,95,0.00,,,0.00,VWS V12.07,2013-01-12 06:34:00,
2013-01-12 00:39:00,40.4,39.1,29.51,West,261,2.0,9.0,95,0.00,,,0.00,VWS V12.07,2013-01-12 06:39:00,
2013-01-12 00:44:00,40.3,39.0,29.51,West,260,1.0,9.0,95,0.00,,,0.00,VWS V12.07,2013-01-12 06:44:00,
2013-01-12 00:49:00,40.3,39.0,29.51,North,355,0.0,9.0,95,0.00,,,0.00,VWS V12.07,2013-01-12 06:49:00,
2013-01-12 00:59:00,41.0,40.0,29.51,West,259,4.0,10.0,96,0.00,,,0.00,VWS V12.07,2013-01-12 06:59:00,
2013-01-12 01:04:00,41.0,40.0,29.51,WSW,248,0.0,3.0,96,0.00,,,0.00,VWS V12.07,2013-01-12 07:04:00,
2013-01-12 01:09:00,41.0,40.0,29.51,SSW,210,2.0,4.0,96,0.00,,,0.00,VWS V12.07,2013-01-12 07:09:00,
2013-01-12 01:14:00,41.0,40.0,29.50,NNE,18,0.0,5.0,96,0.00,,,0.00,VWS V12.07,2013-01-12 07:14:00,
2013-01-12 01:19:00,40.6,39.5,29.50,ENE,71,0.0,5.0,96,0.00,,,0.00,VWS V12.07,2013-01-12 07:19:00,
2013-01-12 01:24:00,40.4,39.1,29.50,NE,53,2.0,6.0,95,0.00,,,0.00,VWS V12.07,2013-01-12 07:24:00,
2013-01-12 01:29:00,40.4,39.1,29.50,ENE,76,0.0,6.0,95,0.01,,,0.01,VWS V12.07,2013-01-12 07:29:00,
2013-01-12 01:34:00,40.5,39.5,29.50,SSW,201,0.0,5.0,96,0.01,,,0.01,VWS V12.07,2013-01-12 07:34:00,
2013-01-12 01:39:00,40.7,39.7,29.50,WNW,298,1.0,5.0,96,0.01,,,0.01,VWS V12.07,2013-01-12 07:39:00,
2013-01-12 01:44:00,40.7,39.7,29.50,SSW,213,4.0,5.0,96,0.01,,,0.01,VWS V12.07,2013-01-12 07:44:00,
2013-01-12 01:49:00,40.6,39.5,29.50,NE,49,1.0,5.0,96,0.01,,,0.01,VWS V12.07,2013-01-12 07:49:00,
2013-01-12 01:54:00,40.7,39.7,29.50,East,82,1.0,5.0,96,0.01,,,0.01,VWS V12.07,2013-01-12 07:54:00,
2013-01-12 01:59:00,40.7,39.7,29.50,WNW,283,1.0,8.0,96,0.01,,,0.01,VWS V12.07,2013-01-12 07:59:00,
2013-01-12 02:04:00,40.7,39.7,29.50,South,187,0.0,4.0,96,0.01,,,0.01,VWS V12.07,2013-01-12 08:04:00,
2013-01-12 02:14:00,40.7,39.7,29.50,SW,219,0.0,5.0,96,0.01,,,0.01,VWS V12.07,2013-01-12 08:14:00,
2013-01-12 02:19:00,40.7,39.7,29.49,South,181,1.0,6.0,96,0.01,,,0.01,VWS V12.07,2013-01-12 08:19:00,
2013-01-12 02:24:00,40.6,39.5,29.50,ENE,78,0.0,6.0,96,0.01,,,0.01,VWS V12.07,2013-01-12 08:24:00,
2013-01-12 02:29:00,40.6,39.5,29.50,NE,54,2.0,6.0,96,0.01,,,0.01,VWS V12.07,2013-01-12 08:29:00,
2013-01-12 02:39:00,40.7,39.7,29.49,SSE,166,0.0,6.0,96,0.00,,,0.01,VWS V12.07,2013-01-12 08:39:00,
2013-01-12 02:44:00,40.8,39.8,29.49,West,261,1.0,6.0,96,0.00,,,0.01,VWS V12.07,2013-01-12 08:44:00,
2013-01-12 02:54:00,41.0,40.0,29.48,NNE,22,0.0,7.0,96,0.00,,,0.01,VWS V12.07,2013-01-12 08:54:00,
2013-01-12 03:04:00,41.0,40.0,29.48,WSW,239,1.0,9.0,96,0.00,,,0.01,VWS V12.07,2013-01-12 09:04:00,
2013-01-12 03:09:00,41.0,40.0,29.48,South,180,0.0,9.0,96,0.00,,,0.01,VWS V12.07,2013-01-12 09:09:00,
2013-01-12 03:14:00,41.1,40.0,29.48,SSW,209,0.0,9.0,96,0.00,,,0.01,VWS V12.07,2013-01-12 09:14:00,
2013-01-12 03:19:00,41.1,40.0,29.48,ESE,109,2.0,11.0,96,0.00,,,0.01,VWS V12.07,2013-01-12 09:19:00,
2013-01-12 03:24:00,41.1,40.0,29.47,ESE,110,2.0,11.0,96,0.00,,,0.01,VWS V12.07,2013-01-12 09:24:00,
2013-01-12 03:34:00,41.0,40.0,29.47,SSE,156,0.0,4.0,96,0.00,,,0.01,VWS V12.07,2013-01-12 09:34:00,
2013-01-12 03:39:00,40.9,39.8,29.47,WSW,257,1.0,7.0,96,0.00,,,0.01,VWS V12.07,2013-01-12 09:39:00,
2013-01-12 03:44:00,41.0,40.0,29.46,West,272,1.0,7.0,96,0.00,,,0.01,VWS V12.07,2013-01-12 09:44:00,
2013-01-12 03:49:00,41.3,40.2,29.46,NW,323,0.0,7.0,96,0.00,,,0.01,VWS V12.07,2013-01-12 09:49:00,
2013-01-12 03:54:00,41.4,40.3,29.46,SW,236,3.0,7.0,96,0.00,,,0.01,VWS V12.07,2013-01-12 09:54:00,
2013-01-12 03:59:00,41.2,40.2,29.47,West,271,0.0,7.0,96,0.00,,,0.01,VWS V12.07,2013-01-12 09:59:00,
2013-01-12 04:04:00,41.3,40.2,29.46,West,281,7.0,8.0,96,0.00,,,0.01,VWS V12.07,2013-01-12 10:04:00,
2013-01-12 04:09:00,41.4,40.3,29.46,SW,226,0.0,9.0,96,0.00,,,0.01,VWS V12.07,2013-01-12 10:09:00,
2013-01-12 04:14:00,41.2,40.2,29.46,South,191,3.0,9.0,96,0.00,,,0.01,VWS V12.07,2013-01-12 10:14:00,
2013-01-12 04:19:00,41.2,39.9,29.47,WSW,241,5.0,11.0,95,0.00,,,0.01,VWS V12.07,2013-01-12 10:19:00,
2013-01-12 04:24:00,41.1,39.8,29.47,WSW,254,4.0,11.0,95,0.00,,,0.01,VWS V12.07,2013-01-12 10:24:00,
2013-01-12 04:29:00,41.3,40.2,29.47,ENE,71,1.0,13.0,96,0.00,,,0.01,VWS V12.07,2013-01-12 10:29:00,
2013-01-12 04:39:00,41.0,39.7,29.47,East,94,2.0,7.0,95,0.00,,,0.01,VWS V12.07,2013-01-12 10:39:00,
2013-01-12 04:44:00,41.1,39.8,29.47,West,265,4.0,12.0,95,0.00,,,0.01,VWS V12.07,2013-01-12 10:44:00,
2013-01-12 04:49:00,41.1,39.8,29.47,WSW,241,4.0,12.0,95,0.00,,,0.01,VWS V12.07,2013-01-12 10:49:00,
2013-01-12 04:54:00,41.0,39.7,29.47,WNW,284,2.0,12.0,95,0.00,,,0.01,VWS V12.07,2013-01-12 10:54:00,
2013-01-12 05:04:00,40.6,39.3,29.47,North,355,0.0,2.0,95,0.01,,,0.02,VWS V12.07,2013-01-12 11:04:00,
2013-01-12 05:14:00,40.4,39.1,29.47,SSW,199,1.0,7.0,95,0.01,,,0.02,VWS V12.07,2013-01-12 11:14:00,
2013-01-12 05:19:00,40.4,39.1,29.47,SW,229,1.0,8.0,95,0.01,,,0.02,VWS V12.07,2013-01-12 11:19:00,
2013-01-12 05:24:00,40.4,39.1,29.48,SW,225,4.0,9.0,95,0.01,,,0.02,VWS V12.07,2013-01-12 11:24:00,
2013-01-12 05:29:00,40.3,39.0,29.48,SSW,200,1.0,9.0,95,0.01,,,0.02,VWS V12.07,2013-01-12 11:29:00,
2013-01-12 05:34:00,40.4,39.1,29.49,SW,227,4.0,6.0,95,0.01,,,0.02,VWS V12.07,2013-01-12 11:34:00,
2013-01-12 05:39:00,40.4,38.8,29.49,NNE,24,2.0,11.0,94,0.01,,,0.02,VWS V12.07,2013-01-12 11:39:00,
2013-01-12 05:49:00,40.3,38.7,29.50,WSW,249,0.0,11.0,94,0.01,,,0.02,VWS V12.07,2013-01-12 11:49:00,
2013-01-12 05:54:00,40.1,38.2,29.50,South,188,1.0,11.0,93,0.01,,,0.02,VWS V12.07,2013-01-12 11:54:00,
2013-01-12 05:59:00,40.0,38.1,29.51,West,276,5.0,11.0,93,0.01,,,0.02,VWS V12.07,2013-01-12 11:59:00,
2013-01-12 06:04:00,39.7,37.3,29.51,SW,226,7.0,15.0,91,0.01,,,0.03,VWS V12.07,2013-01-12 12:04:00,
2013-01-12 06:09:00,39.2,36.8,29.52,South,188,2.0,15.0,91,0.01,,,0.04,VWS V12.07,2013-01-12 12:09:00,
2013-01-12 06:14:00,38.6,36.2,29.52,West,273,3.0,15.0,91,0.02,,,0.04,VWS V12.07,2013-01-12 12:14:00,
2013-01-12 06:19:00,38.1,35.7,29.53,WSW,237,6.0,15.0,91,0.02,,,0.04,VWS V12.07,2013-01-12 12:19:00,
2013-01-12 06:24:00,37.7,35.3,29.53,WSW,249,7.0,15.0,91,0.02,,,0.04,VWS V12.07,2013-01-12 12:24:00,
2013-01-12 06:29:00,37.5,35.4,29.53,WSW,242,3.0,15.0,92,0.02,,,0.04,VWS V12.07,2013-01-12 12:29:00,
2013-01-12 06:34:00,37.3,34.9,29.53,West,263,7.0,14.0,91,0.02,,,0.04,VWS V12.07,2013-01-12 12:34:00,
2013-01-12 06:39:00,37.1,34.4,29.54,WSW,240,9.0,14.0,90,0.02,,,0.04,VWS V12.07,2013-01-12 12:39:00,
2013-01-12 06:44:00,37.0,34.1,29.54,West,277,9.0,14.0,89,0.02,,,0.04,VWS V12.07,2013-01-12 12:44:00,
2013-01-12 06:49:00,36.8,33.9,29.54,NE,56,3.0,14.0,89,0.02,,,0.04,VWS V12.07,2013-01-12 12:49:00,
2013-01-12 06:54:00,36.6,33.4,29.54,NNW,331,7.0,15.0,88,0.02,,,0.04,VWS V12.07,2013-01-12 12:54:00,
2013-01-12 06:59:00,36.5,33.3,29.55,South,178,7.0,15.0,88,0.02,,,0.04,VWS V12.07,2013-01-12 12:59:00,
2013-01-12 07:04:00,36.4,33.2,29.55,West,264,3.0,10.0,88,0.02,,,0.04,VWS V12.07,2013-01-12 13:04:00,
2013-01-12 07:09:00,36.3,32.8,29.55,WSW,254,6.0,14.0,87,0.02,,,0.04,VWS V12.07,2013-01-12 13:09:00,
2013-01-12 07:14:00,36.3,32.5,29.56,West,268,1.0,14.0,86,0.02,,,0.04,VWS V12.07,2013-01-12 13:14:00,
2013-01-12 07:19:00,36.1,32.0,29.56,NW,311,5.0,14.0,85,0.02,,,0.04,VWS V12.07,2013-01-12 13:19:00,
2013-01-12 07:29:00,35.5,31.1,29.57,SSE,167,6.0,14.0,84,0.02,,,0.04,VWS V12.07,2013-01-12 13:29:00,
2013-01-12 07:34:00,35.3,31.0,29.57,SW,232,1.0,6.0,84,0.00,,,0.04,VWS V12.07,2013-01-12 13:34:00,
2013-01-12 07:39:00,35.0,31.0,29.58,WSW,240,4.0,11.0,85,0.00,,,0.04,VWS V12.07,2013-01-12 13:39:00,
2013-01-12 07:44:00,34.7,30.7,29.58,SSW,206,2.0,15.0,85,0.00,,,0.04,VWS V12.07,2013-01-12 13:44:00,
2013-01-12 07:49:00,34.4,30.6,29.59,SSW,196,1.0,15.0,86,0.00,,,0.04,VWS V12.07,2013-01-12 13:49:00,
2013-01-12 07:54:00,34.4,30.6,29.60,WSW,256,5.0,15.0,86,0.00,,,0.04,VWS V12.07,2013-01-12 13:54:00,
2013-01-12 07:59:00,34.2,30.5,29.60,SW,228,3.0,15.0,86,0.00,,,0.04,VWS V12.07,2013-01-12 13:59:00,
2013-01-12 08:04:00,34.0,30.5,29.60,SW,221,2.0,16.0,87,0.00,,,0.04,VWS V12.07,2013-01-12 14:04:00,
2013-01-12 08:09:00,33.9,30.2,29.61,West,277,8.0,16.0,86,0.00,,,0.04,VWS V12.07,2013-01-12 14:09:00,
2013-01-12 08:14:00,33.8,29.8,29.61,NE,42,3.0,16.0,85,0.00,,,0.04,VWS V12.07,2013-01-12 14:14:00,
2013-01-12 08:19:00,33.7,29.7,29.62,WSW,248,4.0,16.0,85,0.00,,,0.04,VWS V12.07,2013-01-12 14:19:00,
2013-01-12 08:24:00,33.6,29.6,29.63,SW,227,5.0,16.0,85,0.00,,,0.04,VWS V12.07,2013-01-12 14:24:00,
2013-01-12 08:29:00,33.5,29.8,29.63,South,179,4.0,16.0,86,0.00,,,0.04,VWS V12.07,2013-01-12 14:29:00,
2013-01-12 08:34:00,33.1,29.9,29.63,SSW,207,1.0,16.0,88,0.00,,,0.04,VWS V12.07,2013-01-12 14:34:00,
2013-01-12 08:44:00,32.4,29.5,29.64,WSW,243,3.0,16.0,89,0.00,,,0.04,VWS V12.07,2013-01-12 14:44:00,
2013-01-12 08:49:00,32.1,29.0,29.64,WSW,244,6.0,16.0,88,0.00,,,0.04,VWS V12.07,2013-01-12 14:49:00,
2013-01-12 08:54:00,31.6,27.6,29.64,SSW,206,4.0,16.0,85,0.00,,,0.04,VWS V12.07,2013-01-12 14:54:00,
2013-01-12 09:04:00,31.0,26.7,29.65,WNW,296,7.0,10.0,84,0.00,,,0.04,VWS V12.07,2013-01-12 15:04:00,
2013-01-12 09:09:00,30.7,26.5,29.66,SW,217,5.0,15.0,84,0.00,,,0.04,VWS V12.07,2013-01-12 15:09:00,
2013-01-12 09:14:00,30.6,26.4,29.66,West,271,15.0,18.0,84,0.00,,,0.04,VWS V12.07,2013-01-12 15:14:00,
2013-01-12 09:19:00,30.4,26.1,29.67,WNW,302,13.0,18.0,84,0.00,,,0.04,VWS V12.07,2013-01-12 15:19:00,
2013-01-12 09:24:00,30.2,25.4,29.67,West,270,6.0,18.0,82,0.00,,,0.04,VWS V12.07,2013-01-12 15:24:00,
2013-01-12 09:29:00,30.1,25.6,29.67,SSE,158,2.0,18.0,83,0.00,,,0.04,VWS V12.07,2013-01-12 15:29:00,
2013-01-12 09:34:00,29.9,25.1,29.68,SSW,197,2.0,11.0,82,0.00,,,0.04,VWS V12.07,2013-01-12 15:34:00,
2013-01-12 09:39:00,29.7,24.9,29.68,WSW,244,2.0,11.0,82,0.00,,,0.04,VWS V12.07,2013-01-12 15:39:00,
2013-01-12 09:44:00,29.4,24.9,29.68,SSE,148,2.0,15.0,83,0.00,,,0.04,VWS V12.07,2013-01-12 15:44:00,
2013-01-12 09:49:00,29.3,24.5,29.69,SW,221,4.0,15.0,82,0.00,,,0.04,VWS V12.07,2013-01-12 15:49:00,
2013-01-12 09:54:00,29.1,24.3,29.69,SSW,208,3.0,15.0,82,0.00,,,0.04,VWS V12.07,2013-01-12 15:54:00,
2013-01-12 09:59:00,29.0,24.2,29.69,WSW,250,2.0,15.0,82,0.00,,,0.04,VWS V12.07,2013-01-12 15:59:00,
2013-01-12 10:04:00,28.8,23.4,29.70,West,263,3.0,12.0,80,0.00,,,0.04,VWS V12.07,2013-01-12 16:04:00,
2013-01-12 10:09:00,28.4,23.0,29.71,WSW,248,9.0,18.0,80,0.00,,,0.04,VWS V12.07,2013-01-12 16:09:00,
2013-01-12 10:14:00,28.1,22.4,29.72,WNW,295,7.0,18.0,79,0.00,,,0.04,VWS V12.07,2013-01-12 16:14:00,
2013-01-12 10:19:00,27.8,22.1,29.72,West,279,9.0,18.0,79,0.00,,,0.04,VWS V12.07,2013-01-12 16:19:00,
2013-01-12 10:24:00,27.5,22.1,29.72,West,279,8.0,18.0,80,0.00,,,0.04,VWS V12.07,2013-01-12 16:24:00,
2013-01-12 10:29:00,27.3,22.0,29.72,SW,227,2.0,18.0,80,0.00,,,0.04,VWS V12.07,2013-01-12 16:29:00,
2013-01-12 10:34:00,27.2,21.9,29.72,WSW,250,1.0,8.0,80,0.00,,,0.04,VWS V12.07,2013-01-12 16:34:00,
2013-01-12 10:39:00,27.1,22.1,29.72,SSW,204,7.0,16.0,81,0.00,,,0.04,VWS V12.07,2013-01-12 16:39:00,
2013-01-12 10:44:00,27.0,21.7,29.72,WSW,252,5.0,16.0,80,0.00,,,0.04,VWS V12.07,2013-01-12 16:44:00,
2013-01-12 10:49:00,26.9,21.9,29.73,WSW,252,10.0,16.0,81,0.00,,,0.04,VWS V12.07,2013-01-12 16:49:00,
2013-01-12 10:54:00,26.7,21.4,29.73,WSW,252,2.0,18.0,80,0.00,,,0.04,VWS V12.07,2013-01-12 16:54:00,
2013-01-12 10:59:00,26.7,21.4,29.73,SSW,194,3.0,18.0,80,0.00,,,0.04,VWS V12.07,2013-01-12 16:59:00,
2013-01-12 11:04:00,26.6,21.0,29.73,NW,304,5.0,15.0,79,0.00,,,0.04,VWS V12.07,2013-01-12 17:04:00,
2013-01-12 11:09:00,26.5,20.9,29.74,West,263,3.0,15.0,79,0.00,,,0.04,VWS V12.07,2013-01-12 17:09:00,
2013-01-12 11:19:00,26.6,21.3,29.75,SW,236,1.0,15.0,80,0.00,,,0.04,VWS V12.07,2013-01-12 17:19:00,
2013-01-12 11:24:00,26.5,21.2,29.75,SSW,209,2.0,15.0,80,0.00,,,0.04,VWS V12.07,2013-01-12 17:24:00,
2013-01-12 11:34:00,26.3,21.0,29.75,West,261,0.0,5.0,80,0.00,,,0.04,VWS V12.07,2013-01-12 17:34:00,
2013-01-12 11:39:00,26.4,21.1,29.75,SW,217,1.0,7.0,80,0.00,,,0.04,VWS V12.07,2013-01-12 17:39:00,
2013-01-12 11:49:00,26.1,20.5,29.76,SW,235,0.0,11.0,79,0.00,,,0.04,VWS V12.07,2013-01-12 17:49:00,
2013-01-12 11:54:00,26.0,20.4,29.76,WSW,256,5.0,12.0,79,0.00,,,0.04,VWS V12.07,2013-01-12 17:54:00,
2013-01-12 11:59:00,25.8,20.2,29.77,SW,217,0.0,12.0,79,0.00,,,0.04,VWS V12.07,2013-01-12 17:59:00,
2013-01-12 12:04:00,25.7,20.1,29.77,WSW,237,2.0,11.0,79,0.00,,,0.04,VWS V12.07,2013-01-12 18:04:00,
2013-01-12 12:09:00,25.6,20.0,29.77,SW,233,1.0,11.0,79,0.00,,,0.04,VWS V12.07,2013-01-12 18:09:00,
2013-01-12 12:14:00,25.5,20.2,29.78,SSW,205,6.0,11.0,80,0.00,,,0.04,VWS V12.07,2013-01-12 18:14:00,
2013-01-12 12:24:00,25.3,19.7,29.78,SW,223,3.0,11.0,79,0.00,,,0.04,VWS V12.07,2013-01-12 18:24:00,
2013-01-12 12:29:00,25.2,19.3,29.78,South,188,1.0,11.0,78,0.00,,,0.04,VWS V12.07,2013-01-12 18:29:00,
2013-01-12 12:34:00,25.0,19.1,29.78,SW,218,0.0,14.0,78,0.00,,,0.04,VWS V12.07,2013-01-12 18:34:00,
2013-01-12 12:39:00,24.8,18.9,29.79,WSW,245,3.0,14.0,78,0.00,,,0.04,VWS V12.07,2013-01-12 18:39:00,
2013-01-12 12:44:00,24.6,18.7,29.79,WNW,287,11.0,14.0,78,0.00,,,0.04,VWS V12.07,2013-01-12 18:44:00,
2013-01-12 12:49:00,24.5,18.6,29.79,SW,220,4.0,14.0,78,0.00,,,0.04,VWS V12.07,2013-01-12 18:49:00,
2013-01-12 12:54:00,24.3,18.1,29.79,SW,227,1.0,14.0,77,0.00,,,0.04,VWS V12.07,2013-01-12 18:54:00,
2013-01-12 12:59:00,24.2,18.3,29.79,South,188,2.0,14.0,78,0.00,,,0.04,VWS V12.07,2013-01-12 18:59:00,
2013-01-12 13:04:00,24.3,18.4,29.79,SSE,154,1.0,3.0,78,0.00,,,0.04,VWS V12.07,2013-01-12 19:04:00,
2013-01-12 13:09:00,24.3,18.1,29.80,West,269,3.0,11.0,77,0.00,,,0.04,VWS V12.07,2013-01-12 19:09:00,
2013-01-12 13:14:00,24.3,18.4,29.80,WNW,295,1.0,11.0,78,0.00,,,0.04,VWS V12.07,2013-01-12 19:14:00,
2013-01-12 13:24:00,24.3,18.4,29.81,SW,233,3.0,11.0,78,0.00,,,0.04,VWS V12.07,2013-01-12 19:24:00,
2013-01-12 13:29:00,24.2,18.3,29.82,SW,221,1.0,11.0,78,0.00,,,0.04,VWS V12.07,2013-01-12 19:29:00,
2013-01-12 13:39:00,23.9,18.0,29.83,WSW,237,0.0,6.0,78,0.00,,,0.04,VWS V12.07,2013-01-12 19:39:00,
2013-01-12 13:44:00,23.9,18.4,29.84,WSW,244,5.0,8.0,79,0.00,,,0.04,VWS V12.07,2013-01-12 19:44:00,
2013-01-12 13:54:00,23.6,18.1,29.84,SW,228,5.0,12.0,79,0.00,,,0.04,VWS V12.07,2013-01-12 19:54:00,
2013-01-12 13:59:00,23.6,18.1,29.84,NW,316,0.0,12.0,79,0.00,,,0.04,VWS V12.07,2013-01-12 19:59:00,
2013-01-12 14:04:00,23.7,18.1,29.84,WSW,254,5.0,7.0,79,0.00,,,0.04,VWS V12.07,2013-01-12 20:04:00,
2013-01-12 14:09:00,23.6,18.4,29.85,West,259,1.0,11.0,80,0.00,,,0.04,VWS V12.07,2013-01-12 20:09:00,
2013-01-12 14:14:00,23.6,18.4,29.84,NW,312,9.0,15.0,80,0.00,,,0.04,VWS V12.07,2013-01-12 20:14:00,
2013-01-12 14:19:00,23.5,18.0,29.84,West,277,0.0,15.0,79,0.00,,,0.04,VWS V12.07,2013-01-12 20:19:00,
2013-01-12 14:24:00,23.4,17.6,29.84,WSW,251,4.0,15.0,78,0.00,,,0.04,VWS V12.07,2013-01-12 20:24:00,
2013-01-12 14:34:00,22.7,16.6,29.85,SSW,195,2.0,9.0,77,0.00,,,0.04,VWS V12.07,2013-01-12 20:34:00,
2013-01-12 14:39:00,22.5,16.4,29.86,WSW,242,1.0,9.0,77,0.00,,,0.04,VWS V12.07,2013-01-12 20:39:00,
2013-01-12 14:49:00,22.4,16.6,29.86,SW,216,0.0,9.0,78,0.00,,,0.04,VWS V12.07,2013-01-12 20:49:00,
2013-01-12 14:54:00,22.5,16.7,29.86,WNW,294,3.0,9.0,78,0.00,,,0.04,VWS V12.07,2013-01-12 20:54:00,
2013-01-12 14:59:00,22.5,16.7,29.87,WSW,254,3.0,13.0,78,0.00,,,0.04,VWS V12.07,2013-01-12 20:59:00,
2013-01-12 15:04:00,22.5,16.7,29.88,WNW,291,2.0,9.0,78,0.00,,,0.04,VWS V12.07,2013-01-12 21:04:00,
2013-01-12 15:09:00,22.5,16.7,29.88,SW,231,2.0,9.0,78,0.00,,,0.04,VWS V12.07,2013-01-12 21:09:00,
2013-01-12 15:14:00,22.3,16.2,29.89,SW,232,1.0,9.0,77,0.00,,,0.04,VWS V12.07,2013-01-12 21:14:00,
2013-01-12 15:19:00,22.2,16.4,29.89,WSW,245,4.0,9.0,78,0.00,,,0.04,VWS V12.07,2013-01-12 21:19:00,
2013-01-12 15:24:00,22.2,16.4,29.89,West,265,0.0,9.0,78,0.00,,,0.04,VWS V12.07,2013-01-12 21:24:00,
2013-01-12 15:29:00,22.1,16.3,29.89,SSW,209,3.0,9.0,78,0.00,,,0.04,VWS V12.07,2013-01-12 21:29:00,
2013-01-12 15:34:00,22.1,16.3,29.89,NW,317,0.0,3.0,78,0.00,,,0.04,VWS V12.07,2013-01-12 21:34:00,
2013-01-12 15:39:00,22.0,15.9,29.89,SSW,206,5.0,11.0,77,0.00,,,0.04,VWS V12.07,2013-01-12 21:39:00,
2013-01-12 15:44:00,21.5,15.4,29.89,WSW,248,3.0,11.0,77,0.00,,,0.04,VWS V12.07,2013-01-12 21:44:00,
2013-01-12 15:49:00,21.2,15.4,29.89,West,271,0.0,11.0,78,0.00,,,0.04,VWS V12.07,2013-01-12 21:49:00,
2013-01-12 15:59:00,20.8,15.0,29.90,WSW,246,5.0,11.0,78,0.00,,,0.04,VWS V12.07,2013-01-12 21:59:00,
2013-01-12 16:09:00,20.2,14.2,29.89,SW,228,3.0,10.0,77,0.00,,,0.04,VWS V12.07,2013-01-12 22:09:00,
2013-01-12 16:19:00,19.8,14.1,29.90,West,259,3.0,10.0,78,0.00,,,0.04,VWS V12.07,2013-01-12 22:19:00,
2013-01-12 16:24:00,19.7,14.3,29.89,SW,225,0.0,10.0,79,0.00,,,0.04,VWS V12.07,2013-01-12 22:24:00,
2013-01-12 16:29:00,19.7,13.7,29.89,West,264,4.0,10.0,77,0.00,,,0.04,VWS V12.07,2013-01-12 22:29:00,
2013-01-12 16:34:00,19.5,13.8,29.89,West,269,2.0,8.0,78,0.00,,,0.04,VWS V12.07,2013-01-12 22:34:00,
2013-01-12 16:39:00,19.3,13.6,29.90,WSW,258,0.0,8.0,78,0.00,,,0.04,VWS V12.07,2013-01-12 22:39:00,
2013-01-12 16:44:00,19.2,13.5,29.91,West,262,1.0,8.0,78,0.00,,,0.04,VWS V12.07,2013-01-12 22:44:00,
2013-01-12 16:49:00,19.1,13.7,29.91,SSW,202,0.0,8.0,79,0.00,,,0.04,VWS V12.07,2013-01-12 22:49:00,
2013-01-12 16:54:00,19.0,13.3,29.92,West,261,1.0,10.0,78,0.00,,,0.04,VWS V12.07,2013-01-12 22:54:00,
2013-01-12 17:04:00,18.8,13.4,29.93,WSW,241,0.0,6.0,79,0.00,,,0.04,VWS V12.07,2013-01-12 23:04:00,
2013-01-12 17:09:00,18.7,13.3,29.93,West,273,0.0,6.0,79,0.00,,,0.04,VWS V12.07,2013-01-12 23:09:00,
2013-01-12 17:14:00,18.5,13.1,29.94,SW,216,0.0,6.0,79,0.00,,,0.04,VWS V12.07,2013-01-12 23:14:00,
2013-01-12 17:19:00,18.5,13.4,29.94,West,271,0.0,6.0,80,0.00,,,0.04,VWS V12.07,2013-01-12 23:19:00,
2013-01-12 17:24:00,18.3,12.9,29.96,WSW,248,2.0,9.0,79,0.00,,,0.04,VWS V12.07,2013-01-12 23:24:00,
2013-01-12 17:29:00,18.0,12.3,29.96,NW,319,0.0,9.0,78,0.00,,,0.04,VWS V12.07,2013-01-12 23:29:00,
2013-01-12 17:34:00,17.7,12.0,29.96,NW,306,1.0,9.0,78,0.00,,,0.04,VWS V12.07,2013-01-12 23:34:00,
2013-01-12 17:44:00,17.5,12.1,29.96,WSW,243,4.0,9.0,79,0.00,,,0.04,VWS V12.07,2013-01-12 23:44:00,
2013-01-12 17:49:00,17.5,12.1,29.96,SW,236,2.0,10.0,79,0.00,,,0.04,VWS V12.07,2013-01-12 23:49:00,
2013-01-12 17:54:00,17.4,11.7,29.96,WNW,297,1.0,11.0,78,0.00,,,0.04,VWS V12.07,2013-01-12 23:54:00,
2013-01-12 17:59:00,17.4,11.7,29.96,WSW,241,0.0,11.0,78,0.00,,,0.04,VWS V12.07,2013-01-12 23:59:00,
2013-01-12 18:04:00,17.3,11.6,29.96,WNW,302,3.0,7.0,78,0.00,,,0.04,VWS V12.07,2013-01-13 00:04:00,
2013-01-12 18:14:00,17.2,11.2,29.97,West,273,3.0,8.0,77,0.00,,,0.04,VWS V12.07,2013-01-13 00:14:00,
2013-01-12 18:24:00,17.0,11.1,29.96,WSW,243,2.0,10.0,77,0.00,,,0.04,VWS V12.07,2013-01-13 00:24:00,
2013-01-12 18:29:00,16.8,11.1,29.97,WNW,290,0.0,10.0,78,0.00,,,0.04,VWS V12.07,2013-01-13 00:29:00,
2013-01-12 18:34:00,16.8,11.1,29.97,SW,226,5.0,9.0,78,0.00,,,0.04,VWS V12.07,2013-01-13 00:34:00,
2013-01-12 18:44:00,16.5,10.9,29.96,NW,318,0.0,9.0,78,0.00,,,0.04,VWS V12.07,2013-01-13 00:44:00,
2013-01-12 18:49:00,16.4,10.8,29.96,West,269,1.0,9.0,78,0.00,,,0.04,VWS V12.07,2013-01-13 00:49:00,
2013-01-12 18:54:00,16.4,10.8,29.96,West,276,3.0,9.0,78,0.00,,,0.04,VWS V12.07,2013-01-13 00:54:00,
2013-01-12 18:59:00,16.4,10.8,29.97,WSW,254,0.0,9.0,78,0.00,,,0.04,VWS V12.07,2013-01-13 00:59:00,
2013-01-12 19:04:00,16.4,10.8,29.97,WNW,288,1.0,9.0,78,0.00,,,0.04,VWS V12.07,2013-01-13 01:04:00,
2013-01-12 19:09:00,16.4,10.8,29.98,WNW,303,0.0,9.0,78,0.00,,,0.04,VWS V12.07,2013-01-13 01:09:00,
2013-01-12 19:14:00,16.4,11.0,29.97,WNW,298,2.0,9.0,79,0.00,,,0.04,VWS V12.07,2013-01-13 01:14:00,
2013-01-12 19:19:00,16.4,11.0,29.98,WNW,302,1.0,9.0,79,0.00,,,0.04,VWS V12.07,2013-01-13 01:19:00,
2013-01-12 19:29:00,15.9,10.3,29.97,West,268,0.0,10.0,78,0.00,,,0.04,VWS V12.07,2013-01-13 01:29:00,
2013-01-12 19:34:00,15.7,10.1,29.96,SW,234,2.0,8.0,78,0.00,,,0.04,VWS V12.07,2013-01-13 01:34:00,
2013-01-12 19:44:00,15.5,9.9,29.99,WSW,249,0.0,10.0,78,0.00,,,0.04,VWS V12.07,2013-01-13 01:44:00,
2013-01-12 19:49:00,15.4,9.8,29.99,WSW,250,0.0,10.0,78,0.00,,,0.04,VWS V12.07,2013-01-13 01:49:00,
2013-01-12 19:54:00,15.4,9.8,29.99,WSW,245,0.0,10.0,78,0.00,,,0.04,VWS V12.07,2013-01-13 01:54:00,
2013-01-12 19:59:00,15.3,9.7,29.98,WSW,257,0.0,10.0,78,0.00,,,0.04,VWS V12.07,2013-01-13 01:59:00,
2013-01-12 20:04:00,15.3,9.7,29.98,West,267,2.0,9.0,78,0.00,,,0.04,VWS V12.07,2013-01-13 02:04:00,
2013-01-12 20:09:00,15.3,9.7,29.99,WSW,253,3.0,9.0,78,0.00,,,0.04,VWS V12.07,2013-01-13 02:09:00,
2013-01-12 20:14:00,15.2,9.6,29.99,WSW,252,0.0,9.0,78,0.00,,,0.04,VWS V12.07,2013-01-13 02:14:00,
2013-01-12 20:19:00,15.1,9.5,29.99,West,269,0.0,9.0,78,0.00,,,0.04,VWS V12.07,2013-01-13 02:19:00,
2013-01-12 20:24:00,15.0,9.4,29.99,West,281,3.0,9.0,78,0.00,,,0.04,VWS V12.07,2013-01-13 02:24:00,
2013-01-12 20:29:00,15.0,9.4,29.99,WNW,288,0.0,9.0,78,0.00,,,0.04,VWS V12.07,2013-01-13 02:29:00,
2013-01-12 20:34:00,15.0,9.4,29.99,West,273,4.0,7.0,78,0.00,,,0.04,VWS V12.07,2013-01-13 02:34:00,
2013-01-12 20:44:00,14.9,9.6,30.01,WSW,244,0.0,7.0,79,0.00,,,0.04,VWS V12.07,2013-01-13 02:44:00,
2013-01-12 20:49:00,14.9,9.6,30.00,West,269,0.0,9.0,79,0.00,,,0.04,VWS V12.07,2013-01-13 02:49:00,
2013-01-12 20:59:00,14.8,9.8,30.00,WNW,286,0.0,9.0,80,0.00,,,0.04,VWS V12.07,2013-01-13 02:59:00,
2013-01-12 21:04:00,14.8,9.8,29.99,WSW,238,0.0,1.0,80,0.00,,,0.04,VWS V12.07,2013-01-13 03:04:00,
2013-01-12 21:09:00,14.8,9.8,30.00,SW,233,2.0,4.0,80,0.00,,,0.04,VWS V12.07,2013-01-13 03:09:00,
2013-01-12 21:14:00,14.7,9.7,30.01,WNW,283,1.0,4.0,80,0.00,,,0.04,VWS V12.07,2013-01-13 03:14:00,
2013-01-12 21:19:00,14.7,9.7,30.02,West,268,4.0,4.0,80,0.00,,,0.04,VWS V12.07,2013-01-13 03:19:00,
2013-01-12 21:24:00,14.7,9.4,30.03,WNW,283,1.0,4.0,79,0.00,,,0.04,VWS V12.07,2013-01-13 03:24:00,
2013-01-12 21:29:00,14.7,9.4,30.02,West,273,1.0,4.0,79,0.00,,,0.04,VWS V12.07,2013-01-13 03:29:00,
2013-01-12 21:34:00,14.6,9.0,30.01,WSW,240,0.0,2.0,78,0.00,,,0.04,VWS V12.07,2013-01-13 03:34:00,
2013-01-12 21:39:00,14.6,9.0,30.01,West,264,1.0,3.0,78,0.00,,,0.04,VWS V12.07,2013-01-13 03:39:00,
2013-01-12 21:49:00,14.5,8.9,30.01,WNW,289,0.0,9.0,78,0.00,,,0.04,VWS V12.07,2013-01-13 03:49:00,
2013-01-12 21:54:00,14.4,8.8,30.00,WSW,242,0.0,9.0,78,0.00,,,0.04,VWS V12.07,2013-01-13 03:54:00,
2013-01-12 21:59:00,14.4,8.5,30.02,WSW,258,0.0,9.0,77,0.00,,,0.04,VWS V12.07,2013-01-13 03:59:00,
2013-01-12 22:09:00,14.3,8.7,30.02,WNW,300,3.0,5.0,78,0.00,,,0.04,VWS V12.07,2013-01-13 04:09:00,
2013-01-12 22:14:00,14.3,8.7,30.02,WSW,245,1.0,7.0,78,0.00,,,0.04,VWS V12.07,2013-01-13 04:14:00,
2013-01-12 22:19:00,14.3,8.4,30.00,WSW,256,0.0,7.0,77,0.00,,,0.04,VWS V12.07,2013-01-13 04:19:00,
2013-01-12 22:24:00,14.3,8.7,30.00,WSW,244,2.0,7.0,78,0.00,,,0.04,VWS V12.07,2013-01-13 04:24:00,
2013-01-12 22:29:00,14.2,8.3,30.00,West,279,0.0,7.0,77,0.00,,,0.04,VWS V12.07,2013-01-13 04:29:00,
2013-01-12 22:34:00,14.2,8.9,30.01,West,279,1.0,1.0,79,0.00,,,0.04,VWS V12.07,2013-01-13 04:34:00,
2013-01-12 22:39:00,14.2,8.9,30.03,WSW,257,0.0,4.0,79,0.00,,,0.04,VWS V12.07,2013-01-13 04:39:00,
2013-01-12 22:44:00,14.2,8.6,30.03,West,277,0.0,4.0,78,0.00,,,0.04,VWS V12.07,2013-01-13 04:44:00,
2013-01-12 22:49:00,14.2,8.6,30.02,WSW,241,0.0,4.0,78,0.00,,,0.04,VWS V12.07,2013-01-13 04:49:00,
2013-01-12 22:54:00,14.1,8.8,30.01,WSW,242,0.0,4.0,79,0.00,,,0.04,VWS V12.07,2013-01-13 04:54:00,
2013-01-12 22:59:00,14.1,8.5,30.01,West,271,1.0,4.0,78,0.00,,,0.04,VWS V12.07,2013-01-13 04:59:00,
2013-01-12 23:04:00,14.0,8.4,30.01,West,277,0.0,4.0,78,0.00,,,0.04,VWS V12.07,2013-01-13 05:04:00,
2013-01-12 23:09:00,14.0,8.4,30.02,WSW,253,3.0,4.0,78,0.00,,,0.04,VWS V12.07,2013-01-13 05:09:00,
2013-01-12 23:14:00,14.0,8.7,30.03,West,265,3.0,4.0,79,0.00,,,0.04,VWS V12.07,2013-01-13 05:14:00,
2013-01-12 23:19:00,14.0,8.7,30.03,WSW,248,1.0,4.0,79,0.00,,,0.04,VWS V12.07,2013-01-13 05:19:00,
2013-01-12 23:24:00,14.0,8.7,30.03,WSW,254,4.0,6.0,79,0.00,,,0.04,VWS V12.07,2013-01-13 05:24:00,
2013-01-12 23:30:00,13.8,8.2,30.02,WNW,288,0.0,6.0,78,0.00,,,0.04,VWS V12.07,2013-01-13 05:30:00,
2013-01-12 23:39:00,13.8,8.2,30.03,SW,227,1.0,4.0,78,0.00,,,0.04,VWS V12.07,2013-01-13 05:39:00,
2013-01-12 23:44:00,13.8,8.2,30.02,WNW,287,2.0,4.0,78,0.00,,,0.04,VWS V12.07,2013-01-13 05:44:00,
2013-01-12 23:49:00,13.8,8.5,30.03,WSW,254,0.0,4.0,79,0.00,,,0.04,VWS V12.07,2013-01-13 05:49:00,
2013-01-12 23:54:00,13.7,8.1,30.01,WSW,250,2.0,5.0,78,0.00,,,0.04,VWS V12.07,2013-01-13 05:54:00,
2013-01-12 23:59:00,13.6,7.7,30.01,NW,306,1.0,6.0,77,0.00,,,0.04,VWS V12.07,2013-01-13 05:59:00,